Ana Sayfa
METAR-TAF:

METAR-TAF

Havaalanları :

Challis Airport

Challis, Idaho, Amerika Birleşik Devletleri

Enlem: 44-31-22N, Boylam: 114-12-54W, yükseklik: 1546 m

Güncel hava durumu gözlemi

Rapor saat 12:55 UTC de 1 saat ve 4 dakika önce yapıldı.
Sakin rüzgar
Sıcaklık -5°C
Nem 86%
Basınç 1023 hPa
Görüş mesafesi: 16.1 km
Açık gökyüzü

METAR: KLLJ 141255Z AUTO 00000KT 10SM CLR M05/M07 A3022 RMK AO2 SLP251 T10501072 TSNO

Saat: 06:59 (13:59 UTC)


TAF: eksik

4.000'den fazla havaalanı için hava durumu gözlemleri ve tahminleri (METAR ve TAF raporları).

Kullanılabilir istasyonlar harita üzerinde sarı ve kırmızı noktalarla gösterilir.

İstasyonun adını görmek için fareyi noktanın üzerinde gezdirin.

Sonrasında hava gözlem ve tahminlerini görmek için tıklayın.

Haritayı değiştirmek için: yaklaştırmak için siyah artı işaretli yeşil düğmeye ve uzaklaştırmak için de eksi işaretli düğmeye hızla tıklayın; bitişik haritalar için yeşil okları kullanın.


METAR-TAF: